| time (UTC) | temp F | wind direction | speed knots | gust knots | rain 1hr in | rain 24hr in | rain mn in | humidity % | barometer mb |
| 20260507010545 | 65 | 174 | 0.0 | 3.5 | 0.00 | 0.05 | 0.05 | 84 | 1008.3 |
| 20260507010109 | 65 | 0 | 0.9 | 3.5 | 0.00 | 0.05 | 0.05 | 83 | 1008.3 |
| 20260507005545 | 65 | 198 | 0.9 | 3.5 | 0.00 | 0.05 | 0.05 | 83 | 1008.2 |
| 20260507005043 | 65 | 167 | 0.0 | 3.5 | 0.00 | 0.05 | 0.05 | 83 | 1008.3 |
| 20260507004549 | 65 | 162 | 0.0 | 3.5 | 0.00 | 0.05 | 0.05 | 83 | 1008.2 |
| 20260507004042 | 65 | 269 | 0.9 | 6.1 | 0.00 | 0.05 | 0.05 | 84 | 1008.3 |
| 20260507003547 | 65 | 0 | 0.9 | 6.1 | 0.00 | 0.05 | 0.05 | 83 | 1008.3 |
| 20260507003050 | 65 | 170 | 0.0 | 4.3 | 0.00 | 0.05 | 0.05 | 83 | 1008.3 |
| 20260507002548 | 64 | 182 | 0.9 | 3.5 | 0.00 | 0.05 | 0.05 | 85 | 1008.3 |
| 20260507002043 | 65 | 0 | 0.0 | 2.6 | 0.00 | 0.05 | 0.05 | 84 | 1008.5 |
| 20260507001558 | 65 | 0 | 0.0 | 3.5 | 0.00 | 0.05 | 0.05 | 83 | 1008.3 |
| 20260507001044 | 65 | 210 | 0.0 | 3.5 | 0.00 | 0.05 | 0.05 | 83 | 1008.1 |
| 20260507000543 | 66 | 0 | 0.0 | 2.6 | 0.00 | 0.05 | 0.05 | 82 | 1007.9 |
| 20260507000059 | 66 | 139 | 0.0 | 2.6 | 0.00 | 0.05 | 0.05 | 82 | 1007.9 |
| 20260506235542 | 66 | 0 | 0.0 | 3.5 | 0.00 | 0.05 | 0.05 | 81 | 1007.9 |
| 20260506235043 | 66 | 136 | 0.0 | 4.3 | 0.00 | 0.05 | 0.05 | 81 | 1007.6 |
| 20260506234616 | 66 | 178 | 0.0 | 4.3 | 0.00 | 0.05 | 0.05 | 81 | 1007.7 |
| 20260506234045 | 67 | 201 | 0.0 | 3.5 | 0.00 | 0.05 | 0.05 | 80 | 1007.6 |
| 20260506233544 | 67 | 179 | 0.0 | 7.8 | 0.00 | 0.05 | 0.05 | 80 | 1007.6 |
| 20260506233104 | 67 | 0 | 0.0 | 7.8 | 0.00 | 0.05 | 0.05 | 79 | 1007.6 |
| 20260506232543 | 68 | 138 | 0.0 | 4.3 | 0.00 | 0.05 | 0.05 | 78 | 1007.5 |
| 20260506232044 | 68 | 0 | 0.0 | 5.2 | 0.00 | 0.05 | 0.05 | 79 | 1007.6 |
| 20260506231551 | 68 | 0 | 0.9 | 7.8 | 0.00 | 0.05 | 0.05 | 79 | 1007.7 |
| 20260506231043 | 68 | 197 | 0.9 | 7.8 | 0.00 | 0.05 | 0.05 | 78 | 1007.9 |
| 20260506230542 | 68 | 201 | 0.9 | 7.0 | 0.00 | 0.05 | 0.05 | 78 | 1007.5 |
| 20260506230051 | 68 | 129 | 0.9 | 7.0 | 0.00 | 0.05 | 0.05 | 78 | 1007.7 |
| 20260506225546 | 68 | 257 | 1.7 | 7.0 | 0.00 | 0.05 | 0.05 | 77 | 1007.7 |
| 20260506225049 | 68 | 0 | 0.9 | 6.1 | 0.00 | 0.05 | 0.05 | 77 | 1007.8 |
| 20260506224553 | 69 | 201 | 0.9 | 7.8 | 0.00 | 0.05 | 0.05 | 76 | 1007.7 |
| 20260506224043 | 69 | 159 | 0.9 | 7.8 | 0.00 | 0.05 | 0.05 | 75 | 1007.7 |
| 20260506223544 | 69 | 184 | 1.7 | 7.0 | 0.00 | 0.05 | 0.05 | 75 | 1007.5 |
| 20260506223100 | 69 | 145 | 1.7 | 7.8 | 0.00 | 0.05 | 0.05 | 75 | 1007.7 |
| 20260506222545 | 70 | 196 | 1.7 | 7.8 | 0.00 | 0.05 | 0.05 | 75 | 1007.7 |
| 20260506222043 | 69 | 161 | 1.7 | 9.6 | 0.00 | 0.05 | 0.05 | 76 | 1007.8 |
| 20260506221550 | 70 | 157 | 1.7 | 9.6 | 0.00 | 0.05 | 0.05 | 75 | 1007.7 |
| 20260506221042 | 70 | 0 | 2.6 | 9.6 | 0.00 | 0.05 | 0.05 | 74 | 1007.7 |
| 20260506220544 | 70 | 155 | 1.7 | 9.6 | 0.00 | 0.05 | 0.05 | 74 | 1007.6 |
| 20260506220052 | 71 | 166 | 3.5 | 8.7 | 0.00 | 0.05 | 0.05 | 73 | 1007.6 |
| 20260506215544 | 71 | 254 | 1.7 | 8.7 | 0.00 | 0.05 | 0.05 | 74 | 1007.6 |
| 20260506215047 | 70 | 0 | 2.6 | 8.7 | 0.00 | 0.05 | 0.05 | 74 | 1007.6 |
| 20260506214551 | 70 | 150 | 0.9 | 8.7 | 0.00 | 0.05 | 0.05 | 74 | 1007.6 |
| 20260506214044 | 70 | 203 | 3.5 | 12.2 | 0.00 | 0.05 | 0.05 | 73 | 1007.4 |
| 20260506213543 | 70 | 32 | 1.7 | 12.2 | 0.00 | 0.05 | 0.05 | 74 | 1007.4 |
| 20260506213056 | 71 | 182 | 3.5 | 12.2 | 0.00 | 0.05 | 0.05 | 73 | 1007.5 |
| 20260506212546 | 71 | 132 | 1.7 | 12.2 | 0.00 | 0.05 | 0.05 | 73 | 1007.4 |
| 20260506212048 | 70 | 99 | 2.6 | 12.2 | 0.00 | 0.05 | 0.05 | 74 | 1007.4 |
| 20260506211555 | 70 | 184 | 2.6 | 9.6 | 0.00 | 0.05 | 0.05 | 75 | 1007.4 |
| 20260506211044 | 70 | 202 | 2.6 | 12.2 | 0.00 | 0.05 | 0.05 | 74 | 1007.4 |
| 20260506210543 | 70 | 0 | 3.5 | 12.2 | 0.00 | 0.05 | 0.05 | 76 | 1007.5 |
| 20260506210052 | 71 | 193 | 0.9 | 12.2 | 0.00 | 0.05 | 0.05 | 73 | 1007.3 |
| 20260506205542 | 71 | 232 | 2.6 | 12.2 | 0.00 | 0.05 | 0.05 | 74 | 1007.3 |
| 20260506205042 | 70 | 181 | 4.3 | 11.3 | 0.00 | 0.05 | 0.05 | 74 | 1007.2 |
| 20260506204604 | 70 | 138 | 3.5 | 11.3 | 0.00 | 0.05 | 0.05 | 75 | 1007.1 |
| 20260506204042 | 69 | 227 | 1.7 | 11.3 | 0.00 | 0.05 | 0.05 | 75 | 1007.1 |
| 20260506203542 | 70 | 140 | 3.5 | 10.4 | 0.00 | 0.05 | 0.05 | 76 | 1007.2 |
| 20260506203054 | 70 | 273 | 2.6 | 10.4 | 0.00 | 0.05 | 0.05 | 74 | 1007.1 |
| 20260506202545 | 70 | 215 | 3.5 | 12.2 | 0.00 | 0.05 | 0.05 | 74 | 1007.0 |
| 20260506202043 | 70 | 230 | 2.6 | 12.2 | 0.00 | 0.05 | 0.05 | 75 | 1007.1 |
| 20260506201554 | 70 | 255 | 3.5 | 10.4 | 0.00 | 0.05 | 0.05 | 75 | 1007.1 |
| 20260506201044 | 70 | 347 | 3.5 | 10.4 | 0.00 | 0.05 | 0.05 | 74 | 1007.1 |
| 20260506200545 | 70 | 257 | 3.5 | 15.6 | 0.00 | 0.05 | 0.05 | 73 | 1007.0 |
| 20260506200049 | 70 | 0 | 3.5 | 15.6 | 0.00 | 0.05 | 0.05 | 77 | 1007.0 |
| 20260506195543 | 70 | 246 | 3.5 | 9.6 | 0.00 | 0.05 | 0.05 | 75 | 1007.0 |
| 20260506195044 | 69 | 201 | 2.6 | 11.3 | 0.00 | 0.05 | 0.05 | 76 | 1007.1 |
| 20260506194552 | 69 | 138 | 1.7 | 12.2 | 0.00 | 0.05 | 0.05 | 77 | 1007.3 |
| 20260506194042 | 68 | 226 | 3.5 | 12.2 | 0.00 | 0.05 | 0.05 | 77 | 1007.4 |
| 20260506193542 | 68 | 170 | 2.6 | 12.2 | 0.00 | 0.05 | 0.05 | 78 | 1007.7 |
| 20260506193053 | 68 | 273 | 5.2 | 13.0 | 0.00 | 0.05 | 0.05 | 79 | 1007.5 |
| 20260506192544 | 68 | 0 | 4.3 | 13.0 | 0.00 | 0.05 | 0.05 | 77 | 1007.7 |
| 20260506192047 | 68 | 241 | 3.5 | 15.6 | 0.00 | 0.05 | 0.05 | 78 | 1007.8 |
| 20260506191553 | 67 | 0 | 0.9 | 15.6 | 0.00 | 0.05 | 0.05 | 78 | 1007.8 |
| 20260506191044 | 66 | 255 | 2.6 | 14.8 | 0.00 | 0.05 | 0.05 | 79 | 1007.9 |
| 20260506190547 | 66 | 0 | 2.6 | 14.8 | 0.00 | 0.05 | 0.05 | 79 | 1007.9 |
| 20260506190051 | 66 | 328 | 3.5 | 11.3 | 0.00 | 0.05 | 0.05 | 79 | 1008.1 |
| 20260506185543 | 66 | 194 | 2.6 | 10.4 | 0.00 | 0.05 | 0.05 | 78 | 1007.8 |
| 20260506185043 | 67 | 347 | 1.7 | 13.0 | 0.00 | 0.05 | 0.05 | 78 | 1008.0 |
| 20260506184552 | 66 | 220 | 3.5 | 13.0 | 0.00 | 0.05 | 0.05 | 80 | 1008.0 |
| 20260506184045 | 66 | 355 | 0.9 | 13.0 | 0.00 | 0.05 | 0.05 | 80 | 1008.1 |
| 20260506183542 | 65 | 184 | 5.2 | 12.2 | 0.00 | 0.05 | 0.05 | 79 | 1008.0 |
| 20260506183050 | 65 | 157 | 1.7 | 16.5 | 0.00 | 0.05 | 0.05 | 79 | 1008.1 |
| 20260506182544 | 65 | 0 | 4.3 | 16.5 | 0.00 | 0.05 | 0.05 | 79 | 1008.3 |
| 20260506182044 | 66 | 163 | 4.3 | 13.9 | 0.00 | 0.05 | 0.05 | 79 | 1008.3 |
| 20260506181551 | 66 | 320 | 1.7 | 12.2 | 0.00 | 0.05 | 0.05 | 80 | 1008.1 |
| 20260506181043 | 65 | 0 | 4.3 | 10.4 | 0.00 | 0.05 | 0.05 | 80 | 1008.1 |
| 20260506180545 | 65 | 251 | 0.9 | 14.8 | 0.00 | 0.05 | 0.05 | 80 | 1008.2 |
| 20260506180051 | 65 | 195 | 5.2 | 14.8 | 0.00 | 0.05 | 0.05 | 80 | 1008.2 |
| 20260506175544 | 65 | 235 | 3.5 | 10.4 | 0.00 | 0.05 | 0.05 | 80 | 1008.4 |
| 20260506175044 | 65 | 179 | 1.7 | 17.4 | 0.00 | 0.05 | 0.05 | 81 | 1008.3 |
| 20260506174558 | 65 | 186 | 2.6 | 17.4 | 0.00 | 0.05 | 0.05 | 81 | 1008.6 |
| 20260506174045 | 65 | 262 | 3.5 | 10.4 | 0.00 | 0.05 | 0.05 | 81 | 1008.2 |
| 20260506173545 | 65 | 209 | 4.3 | 10.4 | 0.00 | 0.05 | 0.05 | 81 | 1008.3 |
| 20260506173118 | 65 | 0 | 1.7 | 12.2 | 0.00 | 0.05 | 0.05 | 82 | 1008.3 |
| 20260506172543 | 65 | 193 | 2.6 | 12.2 | 0.00 | 0.05 | 0.05 | 82 | 1008.3 |
| 20260506172043 | 65 | 192 | 4.3 | 10.4 | 0.00 | 0.05 | 0.05 | 82 | 1008.5 |
| 20260506171551 | 65 | 173 | 4.3 | 11.3 | 0.00 | 0.05 | 0.05 | 83 | 1008.6 |
| 20260506171043 | 64 | 159 | 3.5 | 11.3 | 0.00 | 0.05 | 0.05 | 84 | 1008.5 |
| 20260506170546 | 64 | 194 | 2.6 | 10.4 | 0.00 | 0.05 | 0.05 | 84 | 1008.4 |
| 20260506170050 | 64 | 190 | 4.3 | 11.3 | 0.00 | 0.05 | 0.05 | 84 | 1008.5 |
| 20260506165544 | 64 | 189 | 2.6 | 13.9 | 0.01 | 0.05 | 0.05 | 84 | 1008.6 |
| 20260506165043 | 64 | 68 | 4.3 | 13.9 | 0.02 | 0.05 | 0.05 | 85 | 1008.5 |
| 20260506164551 | 64 | 172 | 6.1 | 13.9 | 0.02 | 0.05 | 0.05 | 84 | 1008.7 |
| 20260506164042 | 64 | 172 | 2.6 | 14.8 | 0.03 | 0.05 | 0.05 | 85 | 1008.7 |
| 20260506163546 | 64 | 0 | 4.3 | 14.8 | 0.03 | 0.05 | 0.05 | 84 | 1008.8 |
| 20260506163054 | 64 | 241 | 5.2 | 11.3 | 0.03 | 0.05 | 0.05 | 85 | 1008.7 |
| 20260506162545 | 64 | 168 | 2.6 | 9.6 | 0.03 | 0.05 | 0.05 | 86 | 1009.0 |
| 20260506162043 | 64 | 199 | 2.6 | 9.6 | 0.04 | 0.05 | 0.05 | 87 | 1009.2 |
| 20260506161600 | 64 | 224 | 4.3 | 11.3 | 0.04 | 0.05 | 0.05 | 86 | 1009.0 |
| 20260506161046 | 64 | 173 | 6.1 | 12.2 | 0.04 | 0.05 | 0.05 | 85 | 1008.9 |
| 20260506160543 | 63 | 147 | 4.3 | 12.2 | 0.04 | 0.05 | 0.05 | 87 | 1009.0 |
| 20260506160052 | 63 | 124 | 1.7 | 13.0 | 0.05 | 0.05 | 0.05 | 86 | 1009.0 |
| 20260506155543 | 63 | 183 | 5.2 | 13.0 | 0.04 | 0.04 | 0.04 | 85 | 1009.4 |
| 20260506155044 | 63 | 184 | 4.3 | 14.8 | 0.03 | 0.03 | 0.03 | 84 | 1009.5 |
| 20260506154559 | 63 | 173 | 6.1 | 14.8 | 0.03 | 0.03 | 0.03 | 83 | 1009.7 |
| 20260506154044 | 64 | 171 | 4.3 | 12.2 | 0.02 | 0.02 | 0.02 | 81 | 1009.9 |
| 20260506153542 | 64 | 180 | 4.3 | 11.3 | 0.02 | 0.02 | 0.02 | 82 | 1009.9 |
| 20260506153049 | 64 | 205 | 4.3 | 13.9 | 0.02 | 0.02 | 0.02 | 80 | 1009.9 |
| 20260506152546 | 64 | 0 | 1.7 | 13.9 | 0.02 | 0.02 | 0.02 | 80 | 1009.8 |
| 20260506152044 | 64 | 183 | 5.2 | 14.8 | 0.01 | 0.01 | 0.01 | 79 | 1009.9 |
| 20260506151555 | 64 | 201 | 3.5 | 14.8 | 0.01 | 0.01 | 0.01 | 79 | 1009.9 |
| 20260506151043 | 64 | 199 | 7.0 | 15.6 | 0.01 | 0.01 | 0.01 | 78 | 1009.8 |
| 20260506150545 | 64 | 188 | 5.2 | 16.5 | 0.01 | 0.01 | 0.01 | 76 | 1009.7 |
| 20260506150059 | 65 | 169 | 6.1 | 16.5 | 0.00 | 0.00 | 0.00 | 76 | 1009.6 |
| 20260506145546 | 65 | 186 | 5.2 | 15.6 | 0.00 | 0.00 | 0.00 | 73 | 1009.8 |
| 20260506145047 | 66 | 91 | 2.6 | 13.0 | 0.00 | 0.00 | 0.00 | 73 | 1009.8 |
| 20260506144608 | 66 | 172 | 1.7 | 10.4 | 0.00 | 0.00 | 0.00 | 71 | 1009.8 |
| 20260506144045 | 67 | 186 | 3.5 | 10.4 | 0.00 | 0.00 | 0.00 | 71 | 1009.8 |
| 20260506143545 | 67 | 197 | 1.7 | 10.4 | 0.00 | 0.00 | 0.00 | 70 | 1009.7 |
| 20260506143055 | 68 | 201 | 2.6 | 13.9 | 0.00 | 0.00 | 0.00 | 68 | 1010.0 |
| 20260506142544 | 68 | 210 | 3.5 | 13.9 | 0.00 | 0.00 | 0.00 | 69 | 1009.8 |
| 20260506142043 | 67 | 203 | 6.1 | 13.9 | 0.00 | 0.00 | 0.00 | 67 | 1009.8 |
| 20260506141550 | 67 | 234 | 2.6 | 15.6 | 0.00 | 0.00 | 0.00 | 69 | 1009.8 |
| 20260506141046 | 67 | 278 | 2.6 | 15.6 | 0.00 | 0.00 | 0.00 | 68 | 1009.8 |
| 20260506140543 | 67 | 198 | 7.0 | 15.6 | 0.00 | 0.00 | 0.00 | 67 | 1009.9 |
| 20260506140106 | 68 | 152 | 2.6 | 11.3 | 0.00 | 0.00 | 0.00 | 66 | 1009.8 |
| 20260506135543 | 68 | 205 | 2.6 | 13.0 | 0.00 | 0.00 | 0.00 | 66 | 1009.8 |
| 20260506135043 | 68 | 104 | 5.2 | 13.9 | 0.00 | 0.00 | 0.00 | 65 | 1009.9 |
| 20260506134553 | 68 | 145 | 4.3 | 15.6 | 0.00 | 0.00 | 0.00 | 63 | 1009.6 |
| 20260506134043 | 69 | 134 | 7.0 | 15.6 | 0.00 | 0.00 | 0.00 | 63 | 1009.5 |
| 20260506133545 | 69 | 174 | 4.3 | 14.8 | 0.00 | 0.00 | 0.00 | 64 | 1009.5 |
| 20260506133111 | 69 | 158 | 4.3 | 14.8 | 0.00 | 0.00 | 0.00 | 65 | 1009.5 |
| 20260506132545 | 69 | 159 | 3.5 | 12.2 | 0.00 | 0.00 | 0.00 | 63 | 1009.6 |
| 20260506132042 | 69 | 199 | 5.2 | 13.9 | 0.00 | 0.00 | 0.00 | 66 | 1009.6 |
| 20260506131550 | 68 | 94 | 5.2 | 13.9 | 0.00 | 0.00 | 0.00 | 65 | 1009.6 |
| 20260506131044 | 68 | 240 | 3.5 | 12.2 | 0.00 | 0.00 | 0.00 | 65 | 1009.6 |
| 20260506130543 | 68 | 209 | 3.5 | 13.9 | 0.00 | 0.00 | 0.00 | 66 | 1009.7 |
| 20260506130133 | 67 | 153 | 3.5 | 13.9 | 0.00 | 0.00 | 0.00 | 68 | 1009.6 |
| 20260506125544 | 67 | 208 | 2.6 | 13.9 | 0.00 | 0.00 | 0.00 | 68 | 1009.7 |
| 20260506125043 | 67 | 147 | 4.3 | 13.9 | 0.00 | 0.00 | 0.00 | 67 | 1009.7 |
| 20260506124553 | 67 | 176 | 3.5 | 11.3 | 0.00 | 0.00 | 0.00 | 68 | 1009.8 |
| 20260506124043 | 67 | 234 | 4.3 | 12.2 | 0.00 | 0.00 | 0.00 | 68 | 1009.8 |
| 20260506123544 | 67 | 0 | 0.9 | 13.0 | 0.00 | 0.00 | 0.00 | 69 | 1009.8 |
| 20260506123053 | 66 | 0 | 4.3 | 13.0 | 0.00 | 0.00 | 0.00 | 68 | 1009.8 |
| 20260506122544 | 66 | 208 | 4.3 | 13.9 | 0.00 | 0.00 | 0.00 | 69 | 1009.8 |
| 20260506122042 | 66 | 196 | 6.1 | 13.9 | 0.00 | 0.00 | 0.00 | 69 | 1009.9 |
| 20260506121556 | 66 | 205 | 6.1 | 13.0 | 0.00 | 0.00 | 0.00 | 70 | 1009.9 |
| 20260506121043 | 66 | 184 | 7.0 | 13.9 | 0.00 | 0.00 | 0.00 | 70 | 1009.8 |
| 20260506120545 | 66 | 201 | 3.5 | 17.4 | 0.00 | 0.00 | 0.00 | 71 | 1009.6 |
| 20260506120057 | 66 | 133 | 6.1 | 17.4 | 0.00 | 0.00 | 0.00 | 71 | 1009.7 |
| 20260506115544 | 66 | 203 | 6.1 | 14.8 | 0.00 | 0.00 | 0.00 | 71 | 1009.8 |
| 20260506115043 | 66 | 0 | 5.2 | 16.5 | 0.00 | 0.00 | 0.00 | 71 | 1009.6 |
| 20260506114551 | 66 | 152 | 7.8 | 16.5 | 0.00 | 0.00 | 0.00 | 71 | 1009.7 |
| 20260506114043 | 66 | 194 | 7.0 | 15.6 | 0.00 | 0.00 | 0.00 | 71 | 1009.6 |
| 20260506113543 | 66 | 168 | 5.2 | 15.6 | 0.00 | 0.00 | 0.00 | 72 | 1009.4 |
| 20260506113052 | 65 | 175 | 5.2 | 14.8 | 0.00 | 0.00 | 0.00 | 73 | 1009.5 |
| 20260506112543 | 65 | 164 | 4.3 | 13.0 | 0.00 | 0.00 | 0.00 | 73 | 1009.5 |
| 20260506112043 | 65 | 195 | 5.2 | 13.0 | 0.00 | 0.00 | 0.00 | 73 | 1009.5 |
| 20260506111548 | 65 | 158 | 4.3 | 15.6 | 0.00 | 0.00 | 0.00 | 73 | 1009.5 |
| 20260506111043 | 64 | 177 | 3.5 | 15.6 | 0.00 | 0.00 | 0.00 | 74 | 1009.3 |
| 20260506110543 | 64 | 197 | 5.2 | 15.6 | 0.00 | 0.00 | 0.00 | 74 | 1009.5 |
| 20260506110054 | 64 | 182 | 2.6 | 9.6 | 0.00 | 0.00 | 0.00 | 74 | 1009.6 |
| 20260506105543 | 64 | 154 | 4.3 | 15.6 | 0.00 | 0.00 | 0.00 | 74 | 1009.6 |
| 20260506105043 | 64 | 204 | 6.1 | 15.6 | 0.00 | 0.00 | 0.00 | 74 | 1009.3 |
| 20260506104559 | 64 | 147 | 4.3 | 13.9 | 0.00 | 0.00 | 0.00 | 74 | 1009.3 |
| 20260506104044 | 64 | 0 | 5.2 | 13.9 | 0.00 | 0.00 | 0.00 | 74 | 1009.5 |
| 20260506103542 | 64 | 217 | 4.3 | 14.8 | 0.00 | 0.00 | 0.00 | 74 | 1009.5 |
| 20260506103054 | 64 | 186 | 6.1 | 14.8 | 0.00 | 0.00 | 0.00 | 74 | 1009.5 |
| 20260506102544 | 64 | 182 | 3.5 | 14.8 | 0.00 | 0.00 | 0.00 | 75 | 1009.4 |
| 20260506102046 | 64 | 215 | 5.2 | 10.4 | 0.00 | 0.00 | 0.00 | 75 | 1009.6 |
| 20260506101550 | 64 | 126 | 4.3 | 15.6 | 0.00 | 0.00 | 0.00 | 75 | 1009.6 |
| 20260506101043 | 64 | 151 | 3.5 | 15.6 | 0.00 | 0.00 | 0.00 | 75 | 1009.5 |
| 20260506100544 | 64 | 114 | 5.2 | 15.6 | 0.00 | 0.00 | 0.00 | 75 | 1009.6 |
| 20260506100105 | 64 | 203 | 7.0 | 14.8 | 0.00 | 0.00 | 0.00 | 75 | 1009.4 |
| 20260506095543 | 63 | 216 | 2.6 | 13.0 | 0.00 | 0.00 | 0.00 | 76 | 1009.4 |
| 20260506095043 | 63 | 114 | 3.5 | 13.0 | 0.00 | 0.00 | 0.00 | 76 | 1009.3 |
| 20260506094602 | 63 | 159 | 1.7 | 13.9 | 0.00 | 0.00 | 0.00 | 76 | 1009.4 |
| 20260506094042 | 63 | 168 | 4.3 | 13.9 | 0.00 | 0.00 | 0.00 | 76 | 1009.4 |
| 20260506093619 | 63 | 213 | 4.3 | 12.2 | 0.00 | 0.00 | 0.00 | 76 | 1009.5 |
| 20260506093051 | 63 | 209 | 3.5 | 8.7 | 0.00 | 0.00 | 0.00 | 76 | 1009.6 |
| 20260506092544 | 63 | 211 | 1.7 | 10.4 | 0.00 | 0.00 | 0.00 | 76 | 1009.5 |
| 20260506092043 | 63 | 171 | 2.6 | 11.3 | 0.00 | 0.00 | 0.00 | 76 | 1009.5 |
| 20260506091548 | 63 | 154 | 3.5 | 11.3 | 0.00 | 0.00 | 0.00 | 76 | 1009.5 |
| 20260506091043 | 63 | 156 | 4.3 | 9.6 | 0.00 | 0.00 | 0.00 | 75 | 1009.6 |
| 20260506090542 | 64 | 152 | 1.7 | 10.4 | 0.00 | 0.00 | 0.00 | 75 | 1009.5 |
| 20260506090053 | 64 | 178 | 3.5 | 12.2 | 0.00 | 0.00 | 0.00 | 75 | 1009.4 |
| 20260506085543 | 64 | 141 | 2.6 | 12.2 | 0.00 | 0.00 | 0.00 | 75 | 1009.4 |
| 20260506085046 | 64 | 176 | 2.6 | 14.8 | 0.00 | 0.00 | 0.00 | 75 | 1009.5 |
| 20260506084600 | 64 | 174 | 1.7 | 14.8 | 0.00 | 0.00 | 0.00 | 75 | 1009.4 |
| 20260506084044 | 64 | 198 | 4.3 | 14.8 | 0.00 | 0.00 | 0.00 | 74 | 1009.5 |
| 20260506083543 | 64 | 123 | 4.3 | 13.0 | 0.00 | 0.00 | 0.00 | 74 | 1009.4 |
| 20260506083057 | 65 | 188 | 3.5 | 10.4 | 0.00 | 0.00 | 0.00 | 73 | 1009.4 |
| 20260506082543 | 65 | 193 | 4.3 | 10.4 | 0.00 | 0.00 | 0.00 | 73 | 1009.2 |
| 20260506082043 | 65 | 174 | 2.6 | 10.4 | 0.00 | 0.00 | 0.00 | 73 | 1009.4 |
| 20260506081605 | 65 | 178 | 1.7 | 8.7 | 0.00 | 0.00 | 0.00 | 73 | 1009.6 |
| 20260506081044 | 65 | 170 | 2.6 | 15.6 | 0.00 | 0.00 | 0.00 | 72 | 1009.6 |
| 20260506080543 | 66 | 266 | 5.2 | 15.6 | 0.00 | 0.00 | 0.00 | 72 | 1009.6 |
| 20260506073053 | 67 | 148 | 5.2 | 12.2 | 0.00 | 0.00 | 0.00 | 70 | 1009.6 |
| 20260506072546 | 66 | 170 | 5.2 | 15.6 | 0.00 | 0.00 | 0.00 | 70 | 1009.6 |
| 20260506072043 | 67 | 180 | 3.5 | 15.6 | 0.00 | 0.00 | 0.00 | 70 | 1009.6 |
| 20260506071552 | 67 | 182 | 4.3 | 12.2 | 0.00 | 0.00 | 0.00 | 70 | 1009.6 |
| 20260506071043 | 67 | 265 | 4.3 | 12.2 | 0.00 | 0.00 | 0.00 | 70 | 1009.7 |
| 20260506070543 | 67 | 198 | 5.2 | 12.2 | 0.00 | 0.00 | 0.00 | 70 | 1009.6 |
| 20260506062045 | 67 | 199 | 2.6 | 10.4 | 0.00 | 0.00 | 0.00 | 70 | 1009.8 |
| 20260506061555 | 67 | 153 | 3.5 | 11.3 | 0.00 | 0.00 | 0.00 | 70 | 1009.9 |
| 20260506061043 | 67 | 157 | 4.3 | 11.3 | 0.00 | 0.00 | 0.00 | 70 | 1009.9 |
| 20260506060543 | 67 | 226 | 4.3 | 11.3 | 0.00 | 0.00 | 0.00 | 70 | 1009.8 |
| 20260506051042 | 67 | 211 | 6.1 | 13.9 | 0.00 | 0.00 | 0.00 | 70 | 1010.2 |
| 20260506050542 | 67 | 240 | 4.3 | 12.2 | 0.00 | 0.00 | 0.00 | 70 | 1010.3 |
| 20260506045043 | 68 | 184 | 2.6 | 13.0 | 0.00 | 0.00 | 0.00 | 68 | 1010.3 |
| 20260506044555 | 68 | 205 | 3.5 | 13.9 | 0.00 | 0.00 | 0.00 | 68 | 1010.3 |
| 20260506044042 | 67 | 176 | 4.3 | 13.9 | 0.00 | 0.00 | 0.00 | 68 | 1010.4 |
| 20260506043543 | 68 | 215 | 6.1 | 13.9 | 0.00 | 0.00 | 0.00 | 68 | 1010.3 |
| 20260506043055 | 68 | 0 | 2.6 | 12.2 | 0.00 | 0.00 | 0.00 | 67 | 1010.4 |
| 20260506042543 | 68 | 159 | 4.3 | 9.6 | 0.00 | 0.00 | 0.00 | 67 | 1010.4 |
| 20260506042045 | 68 | 149 | 5.2 | 11.3 | 0.00 | 0.00 | 0.00 | 66 | 1010.4 |
| 20260506041552 | 68 | 156 | 4.3 | 13.9 | 0.00 | 0.00 | 0.00 | 65 | 1010.4 |
| 20260506041044 | 68 | 199 | 4.3 | 13.9 | 0.00 | 0.00 | 0.00 | 64 | 1010.3 |
| 20260506040543 | 68 | 188 | 6.1 | 13.0 | 0.00 | 0.00 | 0.00 | 64 | 1010.4 |
| 20260506040054 | 68 | 157 | 4.3 | 11.3 | 0.00 | 0.00 | 0.00 | 64 | 1010.3 |
| 20260506035544 | 68 | 195 | 3.5 | 11.3 | 0.00 | 0.00 | 0.00 | 63 | 1010.3 |
| 20260506035043 | 68 | 145 | 3.5 | 10.4 | 0.00 | 0.00 | 0.00 | 63 | 1010.2 |
| 20260506034610 | 68 | 143 | 3.5 | 10.4 | 0.00 | 0.00 | 0.00 | 62 | 1010.2 |
| 20260506034044 | 68 | 178 | 2.6 | 10.4 | 0.00 | 0.00 | 0.00 | 62 | 1010.2 |
| 20260506033542 | 68 | 175 | 3.5 | 10.4 | 0.00 | 0.00 | 0.00 | 61 | 1010.2 |
| 20260506033052 | 68 | 153 | 2.6 | 12.2 | 0.00 | 0.00 | 0.00 | 61 | 1010.2 |
| 20260506032544 | 68 | 180 | 4.3 | 12.2 | 0.00 | 0.00 | 0.00 | 61 | 1010.1 |
| 20260506032044 | 68 | 174 | 2.6 | 8.7 | 0.00 | 0.00 | 0.00 | 61 | 1010.2 |
| 20260506031556 | 68 | 137 | 3.5 | 8.7 | 0.00 | 0.00 | 0.00 | 61 | 1010.1 |
| 20260506031044 | 69 | 184 | 2.6 | 8.7 | 0.00 | 0.00 | 0.00 | 60 | 1010.2 |
| 20260506030543 | 69 | 147 | 4.3 | 8.7 | 0.00 | 0.00 | 0.00 | 60 | 1010.2 |
| 20260506030055 | 69 | 158 | 2.6 | 10.4 | 0.00 | 0.00 | 0.00 | 60 | 1010.3 |
| 20260506025543 | 69 | 170 | 2.6 | 10.4 | 0.00 | 0.00 | 0.00 | 60 | 1010.3 |
| 20260506025044 | 69 | 174 | 2.6 | 13.9 | 0.00 | 0.00 | 0.00 | 60 | 1010.3 |
| 20260506024554 | 69 | 184 | 3.5 | 13.9 | 0.00 | 0.00 | 0.00 | 60 | 1010.4 |
| 20260506024043 | 69 | 197 | 3.5 | 13.9 | 0.00 | 0.00 | 0.00 | 59 | 1010.3 |
| 20260506023543 | 69 | 195 | 3.5 | 8.7 | 0.00 | 0.00 | 0.00 | 58 | 1010.5 |
| 20260506023055 | 69 | 187 | 4.3 | 9.6 | 0.00 | 0.00 | 0.00 | 58 | 1010.4 |
| 20260506022543 | 70 | 0 | 2.6 | 10.4 | 0.00 | 0.00 | 0.00 | 57 | 1010.4 |
| 20260506022044 | 70 | 167 | 3.5 | 13.0 | 0.00 | 0.00 | 0.00 | 57 | 1010.4 |
| 20260506021554 | 70 | 0 | 3.5 | 13.0 | 0.00 | 0.00 | 0.00 | 57 | 1010.5 |
| 20260506021043 | 70 | 162 | 5.2 | 13.0 | 0.00 | 0.00 | 0.00 | 57 | 1010.4 |
| 20260506020542 | 70 | 114 | 2.6 | 11.3 | 0.00 | 0.00 | 0.00 | 56 | 1010.4 |
| 20260506020052 | 70 | 181 | 2.6 | 11.3 | 0.00 | 0.00 | 0.00 | 57 | 1010.4 |
| 20260506015543 | 70 | 140 | 3.5 | 10.4 | 0.00 | 0.00 | 0.00 | 56 | 1010.2 |
| 20260506015048 | 70 | 206 | 2.6 | 10.4 | 0.00 | 0.00 | 0.00 | 56 | 1010.2 |
| 20260506014552 | 70 | 203 | 3.5 | 8.7 | 0.00 | 0.00 | 0.00 | 55 | 1010.2 |
| 20260506014043 | 70 | 186 | 3.5 | 8.7 | 0.00 | 0.00 | 0.00 | 55 | 1010.1 |
| 20260506013547 | 71 | 172 | 3.5 | 13.0 | 0.00 | 0.00 | 0.00 | 55 | 1010.0 |
| 20260506013106 | 71 | 176 | 4.3 | 13.0 | 0.00 | 0.00 | 0.00 | 55 | 1010.0 |
| 20260506012543 | 71 | 205 | 2.6 | 7.0 | 0.00 | 0.00 | 0.00 | 54 | 1009.9 |
| 20260506012045 | 71 | 153 | 2.6 | 8.7 | 0.00 | 0.00 | 0.00 | 53 | 1009.9 |
| 20260506011557 | 71 | 178 | 2.6 | 9.6 | 0.00 | 0.00 | 0.00 | 53 | 1009.8 |
| 20260506011043 | 71 | 194 | 0.9 | 12.2 | 0.00 | 0.00 | 0.00 | 53 | 1009.8 |